Regional Weather Roundup
Issued by NWS

Home | Current Version | Previous Version | Graphics & Text | Print | Product List | Glossary On
Versions: 1 2 3 4 5 6 7 8 9 10 11 12 13 14 15 16 17 18 19 20 21 22 23 24 25 26 27 28 29 30 31 32 33 34 35 36 37 38 39 40 41 42 43 44 45 46 47 48 49 50
000
ASUS43 KBIS 222310
RWRND

NORTH DAKOTA REGIONAL WEATHER ROUNDUP
NATIONAL WEATHER SERVICE BISMARCK ND
600 PM CDT WED OCT 22 2014

NOTE: "FAIR" INDICATES FEW OR NO CLOUDS BELOW 12,000 FEET WITH NO
SIGNIFICANT WEATHER AND/OR OBSTRUCTIONS TO VISIBILITY.


NDZ001>003-009>011-017-230000-
NORTHWEST NORTH DAKOTA

CITY           SKY/WX    TMP DP  RH WIND       PRES   REMARKS
WILLISTON      CLEAR     63  36  36 W14G23    29.81S
MINOT          CLOUDY    59  41  51 W14G25    29.79R
MINOT AFB      CLOUDY    58  44  59 W18       29.78R
$$

NDZ018>021-031>035-040>046-230000-
SOUTHWEST NORTH DAKOTA

CITY           SKY/WX    TMP DP  RH WIND       PRES   REMARKS
BISMARCK       CLEAR     66  37  34 W15       29.86R
DICKINSON      CLEAR     60  33  36 W18       29.87R
GARRISON         N/A     60  41  49 W15G25    29.82R
HETTINGER ARPT CLEAR     60  30  32 W16       29.93R
$$

NDZ004>008-012>016-024-026-027-054-230000-
NORTHEAST NORTH DAKOTA

CITY           SKY/WX    TMP DP  RH WIND       PRES   REMARKS
GRAND FORKS    LGT RAIN  56  53  90 S10       29.82R
GRND FRKS AFB  LGT RAIN  55  55 100 SW10      29.82R
DEVILS LAKE    CLOUDY    55  46  71 SW10      29.77F
$$

NDZ022-023-025-028>030-036>039-047>053-230000-
SOUTHEAST NORTH DAKOTA

CITY           SKY/WX    TMP DP  RH WIND       PRES   REMARKS
FARGO          LGT RAIN  57  54  89 SW5       29.85S
JAMESTOWN      CLOUDY    56  51  84 S7        29.85S
$$




USA.gov is the U.S. government's official web portal to all federal, state and local government web resources and services.